Terug naar catalogus

STARLINK-31210

ActiefCommunicatieVLEO
NORAD 59033·PAYLOAD·🇺🇸 United States

Gelanceerd Feb 25, 2024 vanaf Cape Canaveral Space Force Station

Loading…

Volgende Passages (komende 24 uur)

TLE

VersSource: CelesTrak SupGP

Epoch: Sep 14, 2026, 20:49 UTC

1 59033C 24038L   26257.86784722  .00062857  00000+0  22767-2 0  2573
2 59033  43.0041  35.2711 0001483 276.3050 299.5533 15.27547035    18

Volg STARLINK-31210 in realtime met AllMySat

Download on the App Store